TY-1 (41844 NORAD) Tracking and Keplerian Element Data

This shows tracking and keplerian element data for the satellite.

Feedback or suggestion? Click here.




ElementValue
Catalog41844
NameTY-1
Epoch Orbit11091
Epoch Day312.90294144
Epoch Year2018
RAAN317.9933
Inclination97.4067
Eccentricity0.0013684
Argument of Perigee247.9157
Mean Anonmoly203.4109
Mean Motion15.23677754
Decay Rate1.754E-05
L11 41844U 16066D 18312.90294144 .00001754 00000-0 75951-4 0 9996
L22 41844 97.4067 317.9933 0013684 247.9157 203.4109 15.23677754110916

Live tracking and technical data element details for TY-1 (NORAD 41844). TY-1 can be tracked NOW for your location showing map with azimuth and elevation plus other details from your city location.

Track the satellite on the map from your city or location and see movement details for azimuth, elevation, latitude, longitude, range, height, and movement on the map or in text.







IsCatalogInMostPopularTable: catalog: 41844, numindb: 124
Update: records affected: 1



GetName: 41844 TY-1

Hit Count: updated at: Wed, 14 Nov 2018 10:49:25 GMT